[[{"header":{"parameterUnit":"m.s-1","parameterCategory":2,"la1":30.2991,"la2":30.254,"lo1":-89.0895,"lo2":-89.0444,"dy":0.0017,"dx":0.0017,"nx":28,"ny":28,"refTime":"2026-02-16T03:00:00:Z","depth":"0","parameterNumber":2,"parameterNumberName":"U-component_of_CURRENTS"},"data":[0,0,0,0,0,0,0,0,0,0,0,0,0,0,0,0,0,0,0,0,0,0,0,0,0,0,0,0,0,0,0,0,0,0,0,0,0,0,0,0,0,0,0,0,0,0,0,0,0,0,0,0,0,0,0,0,0,0,0.1453,0.1454,0,0.1492,0.1492,0.1493,0.1494,0.1494,0.1494,0.1493,0.15,0.15,0.1501,0,0,0,0,0,0,0,0,0,0,0,0,0,0.1383,0.1384,0.1453,0.1454,0.1455,0.1492,0.1492,0.1493,0.1494,0.1494,0.1494,0.1493,0.15,0.15,0.1501,0,0,0,0,0,0,0,0,0,0,0,0,0,0.1415,0.1384,0.1453,0.1461,0.1462,0.1492,0.1492,0.1493,0.1494,0.1494,0.1493,0.1493,0.1499,0.15,0.1501,0.1514,0,0,0.1503,0.1503,0,0,0,0,0,0,0,0,0.1413,0.1417,0.1459,0.1461,0.1462,0.1489,0.147,0.1499,0.1494,0.148,0.1493,0.1493,0.1495,0.1496,0.1502,0.1514,0.1514,0.1503,0.1503,0.1504,0.1504,0,0,0,0,0,0,0,0.1411,0.1416,0.1467,0.146,0.1462,0.1464,0.1468,0.1476,0.1488,0.1481,0.1482,0.149,0.1495,0.1501,0.1502,0.1515,0.1503,0.1503,0.1504,0.1504,0.1556,0.1557,0,0,0,0,0,0,0.141,0.1414,0.1466,0.1468,0.1438,0.1466,0.147,0.148,0.1488,0.149,0.149,0.149,0.15,0.1501,0.1502,0.1534,0.1504,0.1504,0.1505,0.1555,0.1556,0.1557,0,0,0,0,0,0,0.1409,0.1415,0.1464,0.1443,0.1449,0.1467,0.1478,0.1481,0.149,0.1495,0.1496,0.1498,0.15,0.1501,0.152,0.1533,0.1504,0.1505,0.1554,0.1556,0.1557,0.1587,0,0,0,0,0,0,0.1406,0.1414,0.1421,0.1443,0.1451,0.1488,0.1479,0.1482,0.1496,0.1496,0.1502,0.1502,0.15,0.1519,0.1521,0.1534,0.1506,0.1553,0.1555,0.1556,0.1585,0.1589,0.1593,0,0,0,0,0,0.1404,0.1416,0.1421,0.1427,0.146,0.1489,0.1493,0.1503,0.1497,0.1508,0.1514,0.1502,0.1532,0.1521,0.1522,0.1536,0.1552,0.1554,0.1556,0.1583,0.1588,0.1593,0,0,0,0,0,0,0.1388,0.1418,0.1424,0.1444,0.1468,0.149,0.1501,0.1507,0.152,0.1518,0.1516,0.1518,0.1538,0.1536,0.1524,0.1557,0.1539,0.1542,0.1559,0.1564,0.1568,0.1571,0.1506,0,0,0,0,0,0.1389,0.1406,0.1435,0.1451,0.1464,0.1483,0.1495,0.1504,0.152,0.1525,0.153,0.1537,0.1549,0.1555,0.1564,0.1584,0.1614,0.1594,0.1598,0.1601,0.1606,0.1636,0.1644,0.1565,0.1565,0.1565,0,0,0.1386,0.1406,0.1415,0.1449,0.1466,0.1492,0.1489,0.1512,0.1532,0.1523,0.1547,0.1552,0.1558,0.1581,0.159,0.158,0.1654,0.1604,0.1607,0.1609,0.1639,0.1647,0.1654,0.1566,0.1566,0.1566,0,0,0.1393,0.141,0.1427,0.1451,0.1483,0.1499,0.1508,0.1535,0.1545,0.1572,0.157,0.1585,0.1603,0.1612,0.1618,0.1652,0.1675,0.1654,0.1677,0.1707,0.1714,0.172,0.1831,0.1846,0.1656,0.1656,0.1656,0,0.1387,0.1418,0.1437,0.1464,0.1485,0.1504,0.153,0.1548,0.1577,0.1591,0.1582,0.1619,0.1618,0.1651,0.1661,0.1661,0.1708,0.1656,0.1713,0.1719,0.1724,0.1836,0.1852,0.1658,0.1657,0.1657,0.1657,0,0.1412,0.1437,0.1451,0.1491,0.1516,0.1543,0.1574,0.1597,0.1608,0.1625,0.1658,0.1663,0.1686,0.1687,0.1683,0.1724,0.176,0.1715,0.1699,0.1734,0.185,0.1867,0.166,0.1659,0.1659,0.1658,0,0,0.1394,0.1455,0.146,0.1484,0.1534,0.1557,0.1596,0.1638,0.1665,0.1684,0.1723,0.1735,0.1738,0.1746,0.1745,0.1764,0.1859,0.1758,0.1759,0.1869,0.1996,0.211,0.214,0.1818,0.182,0.1821,0.2084,0,0.1407,0.1457,0.1487,0.1535,0.1564,0.1599,0.1633,0.1672,0.1701,0.1743,0.1755,0.1788,0.1762,0.1778,0.1795,0.184,0.1895,0.1797,0.1944,0.1951,0.2045,0.2158,0.2136,0.2375,0.2101,0.2104,0.2106,0,0.1419,0.1456,0.1502,0.1562,0.1578,0.1605,0.1668,0.1702,0.1762,0.1786,0.1822,0.1841,0.1901,0.1851,0.197,0.1912,0.1962,0.1991,0.2001,0.2101,0.2094,0.2282,0.2415,0.2351,0.2131,0.2129,0.2128,0,0.1399,0.1464,0.1501,0.1522,0.1592,0.1615,0.1649,0.1708,0.1755,0.1817,0.1876,0.1922,0.1992,0.2023,0.2121,0.2044,0.227,0.2167,0.2332,0.2344,0.2353,0.2362,0.2434,0.2247,0.2247,0.2246,0.2245,0,0.1402,0.1431,0.1491,0.1513,0.1554,0.1603,0.1657,0.1694,0.1777,0.1853,0.1896,0.1993,0.2031,0.2168,0.2191,0.2378,0.2345,0.2387,0.242,0.2373,0.238,0.2343,0.2283,0.2256,0.2254,0.2252,0.225,0,0.1372,0.1416,0.1456,0.1524,0.1545,0.1568,0.1663,0.1708,0.1795,0.1906,0.194,0.2096,0.2294,0.239,0.2511,0.2527,0.2597,0.2701,0.27,0.2727,0.2768,0.2711,0.2742,0.2642,0.2912,0.2917,0.2921,0,0.1362,0.1382,0.1447,0.1473,0.15,0.1556,0.1598,0.1689,0.1757,0.1979,0.2041,0.2288,0.2456,0.2755,0.2842,0.2997,0.2824,0.3046,0.2861,0.2826,0.2785,0.2606,0.2501,0.2916,0.292,0.2922,0.2924,0,0.1344,0.1362,0.1398,0.1467,0.1508,0.1558,0.1634,0.1698,0.1837,0.1971,0.2196,0.2357,0.2693,0.2876,0.3116,0.3168,0.2918,0.3109,0.3034,0.2792,0.2636,0.2537,0.274,0.2949,0.2947,0.2945,0.2943,0.2942,0.1332,0.1355,0.1426,0.1479,0.1516,0.1579,0.1624,0.1734,0.1879,0.2075,0.2247,0.2476,0.2796,0.314,0.319,0.3293,0.3136,0.3193,0.3142,0.2974,0.2818,0.314,0.3389,0.3389,0.3389,0.3389,0.3389,0,0.1366,0.1407,0.1451,0.1528,0.1556,0.1586,0.1669,0.1717,0.1873,0.2071,0.2263,0.2623,0.2895,0.3117,0.3365,0.3301,0.3072,0.3234,0.292,0.2816,0.3103,0.3041,0.327,0.327,0.327,0.327,0.327,0.327,0.1408,0.147,0.1501,0.1571,0.1603,0.1644,0.1681,0.1744,0.1862,0.209,0.2282,0.2458,0.2868,0.3281,0.3366,0.3293,0.2957,0.2935,0.2812,0.2982,0.297,0.2957,0.2882,0.3075,0.3075,0.2401,0.2396,0.2393]},{"header":{"parameterUnit":"m.s-1","parameterCategory":2,"la1":30.2991,"la2":30.254,"lo1":-89.0895,"lo2":-89.0444,"dy":0.0017,"dx":0.0017,"nx":28,"ny":28,"refTime":"2026-02-16T03:00:00:Z","depth":"0","parameterNumber":3,"parameterNumberName":"V-component_of_CURRENTS"},"data":[0,0,0,0,0,0,0,0,0,0,0,0,0,0,0,0,0,0,0,0,0,0,0,0,0,0,0,0,0,0,0,0,0,0,0,0,0,0,0,0,0,0,0,0,0,0,0,0,0,0,0,0,0,0,0,0,0,0,-0.0177,-0.0177,0,-0.0224,-0.0225,-0.0225,-0.0255,-0.0255,-0.0255,-0.0255,-0.0308,-0.0309,-0.0311,0,0,0,0,0,0,0,0,0,0,0,0,0,-0.0131,-0.0132,-0.0176,-0.0177,-0.0178,-0.0224,-0.0225,-0.0225,-0.0255,-0.0255,-0.0255,-0.0255,-0.0308,-0.0309,-0.0311,0,0,0,0,0,0,0,0,0,0,0,0,0,-0.0162,-0.0132,-0.0176,-0.0198,-0.0201,-0.0224,-0.0225,-0.0226,-0.0255,-0.0255,-0.0255,-0.0255,-0.0307,-0.0309,-0.0311,-0.0317,0,0,-0.0317,-0.0318,0,0,0,0,0,0,0,0,-0.016,-0.0163,-0.0194,-0.0197,-0.0199,-0.0234,-0.0228,-0.0257,-0.0254,-0.0234,-0.0255,-0.0255,-0.0284,-0.0288,-0.0296,-0.032,-0.0322,-0.0317,-0.0318,-0.0319,-0.0319,0,0,0,0,0,0,0,-0.0158,-0.0162,-0.0195,-0.0195,-0.0198,-0.0213,-0.0217,-0.0234,-0.0257,-0.0236,-0.0238,-0.0244,-0.0285,-0.0294,-0.0297,-0.0323,-0.0317,-0.0318,-0.032,-0.032,-0.0379,-0.0379,0,0,0,0,0,0,-0.0151,-0.0159,-0.0194,-0.0197,-0.018,-0.0213,-0.0218,-0.0222,-0.0256,-0.0262,-0.0243,-0.0245,-0.029,-0.0295,-0.0299,-0.0316,-0.0319,-0.0321,-0.0322,-0.0379,-0.0379,-0.038,0,0,0,0,0,0,-0.015,-0.0154,-0.0192,-0.0179,-0.0185,-0.0214,-0.0218,-0.0223,-0.0232,-0.0262,-0.0268,-0.0247,-0.0291,-0.0296,-0.0317,-0.0318,-0.0321,-0.0323,-0.0378,-0.0379,-0.0379,-0.0346,0,0,0,0,0,0,-0.0149,-0.0153,-0.0152,-0.0179,-0.0186,-0.0201,-0.0218,-0.0224,-0.0235,-0.0238,-0.0267,-0.0273,-0.0291,-0.0314,-0.0319,-0.0321,-0.0325,-0.0377,-0.0378,-0.0379,-0.0346,-0.0345,-0.0344,0,0,0,0,0,-0.0147,-0.0141,-0.0152,-0.0156,-0.0184,-0.02,-0.0205,-0.0226,-0.0235,-0.0236,-0.0261,-0.0272,-0.0323,-0.0316,-0.0322,-0.0324,-0.0377,-0.0378,-0.0379,-0.0347,-0.0345,-0.0344,0,0,0,0,0,0,-0.0118,-0.0145,-0.0156,-0.0159,-0.0177,-0.0205,-0.0207,-0.0223,-0.0243,-0.0245,-0.0274,-0.0281,-0.0301,-0.0319,-0.031,-0.0345,-0.0353,-0.0355,-0.0327,-0.0326,-0.0325,-0.0323,-0.0326,0,0,0,0,0,-0.0112,-0.0116,-0.0144,-0.0145,-0.0152,-0.018,-0.0189,-0.0203,-0.0225,-0.0234,-0.0257,-0.0285,-0.031,-0.0322,-0.0344,-0.0359,-0.0374,-0.0367,-0.0366,-0.0365,-0.0368,-0.0414,-0.0417,-0.0383,-0.0383,-0.0383,0,0,-0.0101,-0.0116,-0.0119,-0.0139,-0.0155,-0.0161,-0.0185,-0.0195,-0.0202,-0.0237,-0.0251,-0.028,-0.0314,-0.0334,-0.0344,-0.0347,-0.0374,-0.0366,-0.0365,-0.0369,-0.0415,-0.0418,-0.0421,-0.0383,-0.0383,-0.0383,0,0,-0.0078,-0.0094,-0.009,-0.0103,-0.0125,-0.0143,-0.0145,-0.0173,-0.0187,-0.0206,-0.0236,-0.0268,-0.0298,-0.0329,-0.0347,-0.0355,-0.0367,-0.036,-0.0351,-0.0395,-0.0398,-0.0401,-0.0382,-0.0384,-0.0359,-0.0358,-0.0358,0,-0.0062,-0.0063,-0.009,-0.009,-0.0097,-0.0133,-0.0128,-0.0149,-0.0181,-0.0194,-0.0205,-0.0271,-0.0298,-0.0335,-0.0341,-0.0352,-0.036,-0.0349,-0.0393,-0.0396,-0.04,-0.0381,-0.0384,-0.0357,-0.0357,-0.0357,-0.0357,0,-0.0039,-0.004,-0.0037,-0.0051,-0.0062,-0.0063,-0.0096,-0.0111,-0.0134,-0.0161,-0.02,-0.0247,-0.0287,-0.0303,-0.0325,-0.0365,-0.0353,-0.0385,-0.0392,-0.0401,-0.038,-0.0383,-0.0355,-0.0355,-0.0356,-0.0356,0,0,-0.0001,-0.0017,-0.0016,-0.0012,-0.0041,-0.0044,-0.0061,-0.0087,-0.0092,-0.0142,-0.0155,-0.0224,-0.0255,-0.028,-0.0317,-0.036,-0.0381,-0.0381,-0.0384,-0.0354,-0.0432,-0.0343,-0.0337,-0.0424,-0.0426,-0.0427,-0.0391,0,0.0027,0.0042,0.0021,0.0034,0.0039,0.0002,-0.0007,-0.0037,-0.0068,-0.009,-0.016,-0.0185,-0.0244,-0.0255,-0.0315,-0.0361,-0.0395,-0.0385,-0.0436,-0.0436,-0.0351,-0.0341,-0.0334,-0.0297,-0.0394,-0.0395,-0.0395,0,0.0057,0.0063,0.0083,0.008,0.008,0.0078,0.006,0.0047,-0.0003,-0.0025,-0.0082,-0.0126,-0.019,-0.024,-0.0339,-0.0328,-0.0381,-0.0423,-0.0424,-0.036,-0.0354,-0.0314,-0.0299,-0.0499,-0.04,-0.04,-0.04,0,0.0102,0.0108,0.0127,0.0125,0.0114,0.0114,0.0104,0.0066,0.0079,0.0018,0.0042,-0.0074,-0.0072,-0.0202,-0.0265,-0.0315,-0.0345,-0.0427,-0.0394,-0.0386,-0.04,-0.039,-0.0582,-0.051,-0.051,-0.051,-0.051,0,0.0139,0.0157,0.0151,0.0162,0.019,0.016,0.0184,0.0154,0.015,0.0211,0.0085,0.0144,-0.0065,-0.0092,-0.0223,-0.027,-0.0309,-0.038,-0.038,-0.038,-0.037,-0.0559,-0.0671,-0.0508,-0.0509,-0.0509,-0.0509,0,0.0185,0.0179,0.0206,0.0207,0.0212,0.0229,0.0259,0.0287,0.0273,0.0358,0.0358,0.032,0.0295,0.013,-0.0018,-0.0148,-0.034,-0.0258,-0.0201,-0.0196,-0.0395,-0.0502,-0.0641,-0.073,-0.0261,-0.0259,-0.0257,0,0.0215,0.023,0.0248,0.0281,0.0285,0.0314,0.0348,0.0339,0.0402,0.0514,0.0586,0.0592,0.0661,0.049,0.0225,0.0025,-0.0193,-0.0107,-0.0233,-0.039,-0.0513,-0.0597,-0.0671,-0.0226,-0.0224,-0.0222,-0.0221,0,0.0282,0.0281,0.0307,0.0382,0.0424,0.0474,0.0539,0.0623,0.0681,0.0802,0.1012,0.1085,0.0924,0.0748,0.0449,0.0265,-0.0253,-0.0076,-0.0298,-0.0538,-0.059,-0.0678,-0.0223,-0.0206,-0.0207,-0.0208,-0.0209,-0.021,0.0355,0.0399,0.0459,0.0533,0.0574,0.0694,0.0804,0.092,0.111,0.1363,0.137,0.154,0.1173,0.0769,0.0482,-0.0077,-0.0111,-0.0282,-0.0401,-0.0472,-0.0568,-0.0026,0.0025,0.0025,0.0025,0.0025,0.0025,0,0.0522,0.0574,0.063,0.0753,0.0846,0.0828,0.0992,0.1148,0.1457,0.1635,0.184,0.1761,0.131,0.0776,0.0036,-0.0352,-0.0567,-0.0584,-0.0783,-0.085,-0.0425,-0.0436,-0.0411,-0.0411,-0.0411,-0.0411,-0.0411,-0.041,0.0646,0.0767,0.0801,0.1019,0.1088,0.1274,0.14,0.1613,0.1774,0.2074,0.2171,0.2178,0.1762,0.0397,-0.0551,-0.0771,-0.1113,-0.1122,-0.1287,-0.1088,-0.1073,-0.1058,-0.1099,-0.1214,-0.1215,-0.1695,-0.17,-0.1704]}],[{"header":{"parameterUnit":"m.s-1","parameterCategory":2,"la1":30.2991,"la2":30.254,"lo1":-89.0895,"lo2":-89.0444,"dy":0.0017,"dx":0.0017,"nx":28,"ny":28,"refTime":"2026-02-16T03:00:00:Z","depth":"2","parameterNumber":2,"parameterNumberName":"U-component_of_CURRENTS"},"data":[0,0,0,0,0,0,0,0,0,0,0,0,0,0,0,0,0,0,0,0,0,0,0,0,0,0,0,0,0,0,0,0,0,0,0,0,0,0,0,0,0,0,0,0,0,0,0,0,0,0,0,0,0,0,0,0,0,0,0.1361,0.1361,0,0.1396,0.1396,0.1396,0.1402,0.1402,0.1401,0.1401,0.1415,0.1415,0.1415,0,0,0,0,0,0,0,0,0,0,0,0,0,0.1297,0.1298,0.1361,0.1361,0.1362,0.1396,0.1396,0.1396,0.1402,0.1402,0.1401,0.1401,0.1414,0.1415,0.1416,0,0,0,0,0,0,0,0,0,0,0,0,0,0.1326,0.1298,0.1361,0.137,0.1371,0.1396,0.1396,0.1397,0.1402,0.1402,0.1401,0.1401,0.1414,0.1415,0.1416,0.1425,0,0,0.1418,0.1418,0,0,0,0,0,0,0,0,0.1324,0.1328,0.1368,0.1369,0.1371,0.1396,0.1378,0.1406,0.1402,0.1388,0.1401,0.1401,0.1408,0.1409,0.1414,0.1426,0.1426,0.1418,0.1418,0.1419,0.1419,0,0,0,0,0,0,0,0.1322,0.1326,0.1373,0.1369,0.1371,0.1372,0.1376,0.1384,0.1397,0.139,0.139,0.1397,0.1408,0.1413,0.1414,0.1426,0.1418,0.1419,0.1419,0.1419,0.1489,0.1491,0,0,0,0,0,0,0.1322,0.1325,0.1372,0.1374,0.1348,0.1373,0.1377,0.1387,0.1398,0.14,0.1397,0.1397,0.1412,0.1413,0.1415,0.1463,0.1419,0.1419,0.142,0.1488,0.149,0.1491,0,0,0,0,0,0,0.132,0.1326,0.1371,0.1351,0.1357,0.1375,0.1385,0.1387,0.1398,0.1404,0.1405,0.1406,0.1412,0.1413,0.1432,0.1462,0.142,0.142,0.1486,0.1488,0.149,0.1535,0,0,0,0,0,0,0.1318,0.1325,0.1332,0.1351,0.1358,0.1392,0.1386,0.1388,0.1403,0.1404,0.1412,0.1413,0.1412,0.1431,0.1433,0.1462,0.1421,0.1484,0.1487,0.149,0.1532,0.1539,0.1544,0,0,0,0,0,0.1316,0.1327,0.1332,0.1338,0.1368,0.1392,0.1396,0.1406,0.1404,0.1414,0.1421,0.1413,0.145,0.1433,0.1435,0.1464,0.1483,0.1486,0.149,0.1529,0.1537,0.1544,0,0,0,0,0,0,0.1303,0.133,0.1335,0.1354,0.1375,0.1394,0.1405,0.1411,0.1425,0.1425,0.1425,0.1427,0.1458,0.1454,0.1436,0.1494,0.1468,0.1471,0.1497,0.1505,0.1511,0.1507,0.1422,0,0,0,0,0,0.1304,0.132,0.1345,0.1361,0.1372,0.1389,0.14,0.1409,0.1424,0.143,0.1437,0.145,0.1472,0.1481,0.1495,0.1521,0.1537,0.1544,0.155,0.1556,0.1555,0.1584,0.1592,0.1502,0.1502,0.1501,0,0,0.1302,0.132,0.1329,0.1359,0.1375,0.1398,0.1395,0.1417,0.1442,0.1429,0.1461,0.147,0.1484,0.1518,0.1532,0.1518,0.1601,0.156,0.1564,0.1561,0.1588,0.1596,0.1604,0.1504,0.1503,0.1503,0,0,0.1309,0.1325,0.1341,0.1361,0.1391,0.1407,0.1415,0.144,0.1458,0.1489,0.1492,0.1514,0.1543,0.156,0.1573,0.162,0.1632,0.1632,0.166,0.1688,0.1696,0.1702,0.178,0.1793,0.1635,0.1635,0.1635,0,0.1304,0.1332,0.135,0.1373,0.1393,0.1412,0.1437,0.1462,0.1491,0.1513,0.1506,0.156,0.1565,0.1615,0.1632,0.1634,0.1667,0.1629,0.1696,0.1702,0.1708,0.1785,0.1799,0.1638,0.1637,0.1637,0.1637,0,0.1325,0.1348,0.1361,0.1399,0.1423,0.1448,0.1485,0.1516,0.1538,0.1561,0.1612,0.1621,0.1653,0.1665,0.1663,0.1715,0.1734,0.1699,0.1674,0.1719,0.1799,0.1813,0.1641,0.164,0.164,0.1639,0,0,0.1308,0.1364,0.1368,0.1393,0.144,0.1463,0.1516,0.157,0.1611,0.1638,0.169,0.1721,0.1723,0.1737,0.174,0.1761,0.1843,0.175,0.175,0.1824,0.1951,0.1939,0.1953,0.1816,0.1818,0.1819,0.2007,0,0.1318,0.1362,0.1392,0.144,0.1467,0.1509,0.156,0.1611,0.1656,0.1711,0.1735,0.178,0.1754,0.1775,0.1793,0.1829,0.1873,0.1798,0.1898,0.1902,0.1881,0.1964,0.1802,0.1952,0.202,0.2022,0.2023,0,0.1327,0.1359,0.1402,0.1471,0.1488,0.152,0.1607,0.1655,0.1737,0.1773,0.1816,0.1838,0.1895,0.185,0.1942,0.1898,0.193,0.1951,0.1958,0.1932,0.1913,0.1908,0.1973,0.2045,0.2044,0.2042,0.2041,0,0.1305,0.1368,0.1403,0.1424,0.1501,0.1538,0.1585,0.1669,0.1729,0.1811,0.1865,0.1918,0.197,0.1997,0.2052,0.2004,0.2157,0.2094,0.2126,0.2128,0.2001,0.1988,0.2156,0.2156,0.2155,0.2155,0.2154,0,0.1305,0.1333,0.1395,0.1415,0.1469,0.1528,0.1602,0.166,0.176,0.183,0.1887,0.1959,0.2004,0.2094,0.2107,0.2186,0.2211,0.2159,0.2172,0.2018,0.2005,0.2072,0.206,0.2162,0.216,0.2159,0.2158,0,0.1273,0.1314,0.1355,0.1431,0.1457,0.1494,0.1607,0.1667,0.1765,0.1862,0.1895,0.203,0.2142,0.221,0.2296,0.2279,0.2334,0.2351,0.22,0.219,0.2278,0.2267,0.2407,0.2408,0.2409,0.241,0.241,0,0.1261,0.1277,0.1347,0.1376,0.141,0.148,0.1534,0.1645,0.1714,0.1897,0.1943,0.2105,0.2186,0.2353,0.2366,0.2434,0.2422,0.2314,0.2164,0.2304,0.2303,0.229,0.2277,0.2047,0.2044,0.2042,0.2041,0,0.1236,0.1257,0.1295,0.1351,0.1401,0.1462,0.1548,0.1602,0.1738,0.182,0.1957,0.2044,0.2227,0.2233,0.2341,0.2334,0.2281,0.2276,0.2475,0.1994,0.1975,0.197,0.1967,0.2023,0.2025,0.2026,0.2027,0.2028,0.1214,0.1232,0.1284,0.1331,0.1386,0.1437,0.1469,0.1548,0.1629,0.1737,0.1881,0.1961,0.2063,0.2136,0.2123,0.2124,0.2246,0.2138,0.2139,0.2144,0.2054,0.2035,0.2083,0.2085,0.2087,0.2088,0.209,0,0.1191,0.1226,0.1269,0.1324,0.1354,0.1404,0.1476,0.1474,0.1505,0.1636,0.1724,0.1681,0.1749,0.1851,0.1834,0.1864,0.1791,0.1789,0.1671,0.1693,0.1712,0.1592,0.1504,0.1501,0.1499,0.1497,0,0,0.1189,0.1216,0.1238,0.1277,0.1316,0.1322,0.1341,0.1318,0.1379,0.1393,0.1451,0.1652,0.1795,0.1605,0.162,0.1558,0.1594,0.1502,0.1983,0.1865,0.188,0.1941,0.1788,0,0,0,0,0]},{"header":{"parameterUnit":"m.s-1","parameterCategory":2,"la1":30.2991,"la2":30.254,"lo1":-89.0895,"lo2":-89.0444,"dy":0.0017,"dx":0.0017,"nx":28,"ny":28,"refTime":"2026-02-16T03:00:00:Z","depth":"2","parameterNumber":3,"parameterNumberName":"V-component_of_CURRENTS"},"data":[0,0,0,0,0,0,0,0,0,0,0,0,0,0,0,0,0,0,0,0,0,0,0,0,0,0,0,0,0,0,0,0,0,0,0,0,0,0,0,0,0,0,0,0,0,0,0,0,0,0,0,0,0,0,0,0,0,0,-0.0257,-0.0258,0,-0.0298,-0.0298,-0.0299,-0.0328,-0.0328,-0.0329,-0.0329,-0.038,-0.0381,-0.0383,0,0,0,0,0,0,0,0,0,0,0,0,0,-0.0223,-0.0224,-0.0257,-0.0258,-0.0258,-0.0298,-0.0299,-0.0299,-0.0328,-0.0328,-0.0329,-0.0329,-0.038,-0.0381,-0.0383,0,0,0,0,0,0,0,0,0,0,0,0,0,-0.0248,-0.0224,-0.0257,-0.0278,-0.028,-0.0298,-0.0299,-0.0299,-0.0328,-0.0328,-0.0329,-0.0329,-0.038,-0.0381,-0.0383,-0.0386,0,0,-0.0388,-0.0389,0,0,0,0,0,0,0,0,-0.0247,-0.025,-0.0274,-0.0276,-0.0279,-0.0309,-0.0306,-0.0329,-0.0328,-0.031,-0.0329,-0.0329,-0.0357,-0.0361,-0.0367,-0.0388,-0.039,-0.0388,-0.0389,-0.039,-0.039,0,0,0,0,0,0,0,-0.0245,-0.0248,-0.0273,-0.0275,-0.0277,-0.0291,-0.0295,-0.031,-0.0331,-0.0311,-0.0313,-0.0318,-0.0359,-0.0365,-0.0369,-0.0391,-0.0388,-0.039,-0.0391,-0.0391,-0.0445,-0.0446,0,0,0,0,0,0,-0.0239,-0.0246,-0.0272,-0.0274,-0.0264,-0.0292,-0.0296,-0.0298,-0.033,-0.0336,-0.0318,-0.0319,-0.0362,-0.0367,-0.0371,-0.0394,-0.039,-0.0392,-0.0393,-0.0445,-0.0446,-0.0446,0,0,0,0,0,0,-0.0238,-0.0241,-0.027,-0.0262,-0.0266,-0.0292,-0.0294,-0.0299,-0.0307,-0.0335,-0.0341,-0.0322,-0.0363,-0.0368,-0.0384,-0.0396,-0.0392,-0.0394,-0.0445,-0.0445,-0.0446,-0.043,0,0,0,0,0,0,-0.0237,-0.024,-0.0239,-0.0261,-0.0267,-0.0276,-0.0294,-0.03,-0.031,-0.0312,-0.034,-0.0346,-0.0364,-0.0381,-0.0386,-0.0398,-0.0395,-0.0444,-0.0445,-0.0446,-0.043,-0.043,-0.043,0,0,0,0,0,-0.0235,-0.0229,-0.0238,-0.0242,-0.0264,-0.0276,-0.0279,-0.0299,-0.0309,-0.0309,-0.0331,-0.0345,-0.039,-0.0382,-0.0388,-0.0401,-0.0444,-0.0445,-0.0446,-0.043,-0.043,-0.043,0,0,0,0,0,0,-0.0211,-0.0232,-0.0243,-0.0243,-0.0257,-0.028,-0.0282,-0.0296,-0.0313,-0.0316,-0.0344,-0.035,-0.0371,-0.0385,-0.0377,-0.042,-0.0422,-0.0424,-0.0408,-0.0409,-0.0409,-0.0402,-0.0397,0,0,0,0,0,-0.0206,-0.0208,-0.023,-0.0229,-0.0235,-0.0258,-0.0266,-0.0279,-0.0297,-0.0305,-0.0326,-0.0352,-0.0379,-0.0392,-0.0412,-0.0429,-0.0445,-0.0444,-0.0444,-0.0444,-0.0442,-0.0487,-0.0491,-0.0449,-0.0449,-0.0449,0,0,-0.0196,-0.0208,-0.0209,-0.0224,-0.0237,-0.0239,-0.0263,-0.027,-0.0278,-0.0308,-0.0321,-0.035,-0.0383,-0.0406,-0.0418,-0.0419,-0.046,-0.0445,-0.0445,-0.0443,-0.0488,-0.0492,-0.0496,-0.045,-0.045,-0.0449,0,0,-0.0175,-0.0188,-0.0182,-0.0191,-0.0208,-0.0223,-0.0224,-0.0247,-0.0263,-0.028,-0.031,-0.0344,-0.0374,-0.0407,-0.0427,-0.0439,-0.0458,-0.0447,-0.0443,-0.0486,-0.049,-0.0494,-0.0497,-0.0502,-0.0449,-0.0449,-0.0449,0,-0.0162,-0.0159,-0.0182,-0.0178,-0.0181,-0.0213,-0.0206,-0.0227,-0.0254,-0.0269,-0.028,-0.0348,-0.0377,-0.0419,-0.0429,-0.044,-0.0453,-0.0439,-0.0486,-0.049,-0.0494,-0.0498,-0.0502,-0.0448,-0.0448,-0.0448,-0.0448,0,-0.0138,-0.0136,-0.0132,-0.0139,-0.0146,-0.0144,-0.0174,-0.0188,-0.0214,-0.0241,-0.0285,-0.0333,-0.0373,-0.0397,-0.0418,-0.0464,-0.0458,-0.0479,-0.0484,-0.0497,-0.05,-0.0505,-0.0447,-0.0447,-0.0447,-0.0448,0,0,-0.0108,-0.0113,-0.0112,-0.0105,-0.0124,-0.0125,-0.014,-0.0165,-0.0176,-0.0225,-0.0245,-0.0319,-0.0351,-0.0376,-0.0416,-0.0463,-0.0502,-0.0482,-0.0484,-0.048,-0.0569,-0.0545,-0.0548,-0.0534,-0.0535,-0.0536,-0.0552,0,-0.0081,-0.0061,-0.0075,-0.0057,-0.0048,-0.0079,-0.0089,-0.0118,-0.0154,-0.0181,-0.0256,-0.0287,-0.0342,-0.0359,-0.0419,-0.0476,-0.0518,-0.0493,-0.0561,-0.0562,-0.0536,-0.0555,-0.0526,-0.0537,-0.0557,-0.0558,-0.0558,0,-0.0054,-0.0043,-0.0019,-0.0014,-0.0013,-0.0011,-0.0029,-0.0044,-0.0099,-0.0126,-0.0185,-0.0232,-0.0304,-0.0347,-0.0463,-0.0443,-0.0505,-0.0556,-0.0558,-0.0546,-0.0549,-0.0532,-0.0545,-0.0567,-0.0567,-0.0566,-0.0565,0,-0.0019,-0.0004,0.0018,0.002,0.0018,0.0019,0.0011,-0.003,-0.0031,-0.009,-0.0088,-0.0192,-0.0216,-0.0332,-0.0435,-0.0451,-0.0551,-0.0583,-0.0618,-0.0615,-0.0609,-0.0603,-0.0671,-0.0671,-0.0671,-0.0671,-0.0671,0,0.0014,0.0033,0.0037,0.005,0.0077,0.0057,0.007,0.0045,0.0024,0.0031,-0.0055,-0.0058,-0.0216,-0.0288,-0.0409,-0.0515,-0.0531,-0.0616,-0.0627,-0.0599,-0.0593,-0.064,-0.0636,-0.0671,-0.0671,-0.0671,-0.0671,0,0.0046,0.0048,0.0078,0.0087,0.0095,0.011,0.0127,0.0136,0.0112,0.0124,0.0117,0.0052,-0.0037,-0.0183,-0.0344,-0.045,-0.0574,-0.0609,-0.0543,-0.0547,-0.0613,-0.0609,-0.0652,-0.0651,-0.0651,-0.0651,-0.065,0,0.0063,0.008,0.0111,0.0135,0.0142,0.0165,0.0184,0.0175,0.0194,0.0194,0.0212,0.0152,0.0117,-0.0086,-0.029,-0.0476,-0.0528,-0.0565,-0.0607,-0.0609,-0.0616,-0.0612,-0.0608,-0.0583,-0.0582,-0.0581,-0.058,0,0.0091,0.01,0.0123,0.0172,0.0204,0.0248,0.0277,0.0317,0.0311,0.034,0.0369,0.0351,0.0177,0.0007,-0.0235,-0.0372,-0.0538,-0.0556,-0.0591,-0.0588,-0.0545,-0.0551,-0.0549,-0.0574,-0.0575,-0.0575,-0.0576,-0.0576,0.0102,0.0125,0.0151,0.0199,0.025,0.0314,0.0355,0.0406,0.0462,0.0513,0.049,0.0491,0.0284,0.0004,-0.0224,-0.046,-0.0476,-0.0566,-0.0569,-0.0572,-0.0557,-0.0516,-0.0534,-0.0535,-0.0535,-0.0535,-0.0536,0,0.0089,0.0118,0.0173,0.0227,0.029,0.0315,0.0403,0.0453,0.0536,0.0612,0.0642,0.0496,0.0313,0.0084,-0.0255,-0.0471,-0.0506,-0.0532,-0.0536,-0.054,-0.0545,-0.053,-0.05,-0.05,-0.05,-0.0501,0,0,0.0073,0.0109,0.0141,0.0231,0.0289,0.0378,0.0435,0.053,0.0612,0.0701,0.0734,0.0705,0.0424,0.0192,-0.0111,-0.0298,-0.0369,-0.0335,-0.0343,-0.0317,-0.0319,-0.0545,-0.0524,0,0,0,0,0]}],[{"header":{"parameterUnit":"m.s-1","parameterCategory":2,"la1":30.2991,"la2":30.254,"lo1":-89.0895,"lo2":-89.0444,"dy":0.0017,"dx":0.0017,"nx":28,"ny":28,"refTime":"2026-02-16T03:00:00:Z","depth":"4","parameterNumber":2,"parameterNumberName":"U-component_of_CURRENTS"},"data":[0,0,0,0,0,0,0,0,0,0,0,0,0,0,0,0,0,0,0,0,0,0,0,0,0,0,0,0,0,0,0,0,0,0,0,0,0,0,0,0,0,0,0,0,0,0,0,0,0,0,0,0,0,0,0,0,0,0,0.095,0.095,0,0.0994,0.0995,0.0995,0.1029,0.103,0.103,0.1031,0.106,0.106,0.1061,0,0,0,0,0,0,0,0,0,0,0,0,0,0.088,0.0881,0.095,0.095,0.0951,0.0994,0.0995,0.0995,0.1029,0.103,0.103,0.1031,0.106,0.106,0.1061,0,0,0,0,0,0,0,0,0,0,0,0,0,0.0914,0.0881,0.0949,0.0974,0.0977,0.0994,0.0995,0.0995,0.1029,0.103,0.103,0.1031,0.106,0.106,0.1061,0.105,0,0,0.1062,0.1063,0,0,0,0,0,0,0,0,0.0912,0.0916,0.097,0.0973,0.0976,0.1008,0.0981,0.1013,0.1029,0.1007,0.1031,0.1031,0.1042,0.1044,0.1049,0.1051,0.1052,0.1062,0.1063,0.1063,0.1063,0,0,0,0,0,0,0,0.091,0.0915,0.0965,0.0971,0.0974,0.0979,0.0984,0.0987,0.1018,0.1009,0.1012,0.102,0.1043,0.1048,0.1049,0.1053,0.1062,0.1063,0.1063,0.1063,0.1104,0.1105,0,0,0,0,0,0,0.0908,0.0912,0.0964,0.0967,0.0947,0.098,0.0986,0.0996,0.1019,0.1024,0.1019,0.1021,0.1047,0.1049,0.1051,0.1095,0.1063,0.1063,0.1064,0.1104,0.1104,0.1105,0,0,0,0,0,0,0.0906,0.0912,0.0962,0.0942,0.0949,0.098,0.0991,0.0996,0.1022,0.1027,0.1031,0.1042,0.1047,0.105,0.1074,0.1094,0.1064,0.1064,0.1103,0.1104,0.1105,0.1147,0,0,0,0,0,0,0.0904,0.0911,0.0926,0.0942,0.095,0.0986,0.0991,0.0997,0.1025,0.1029,0.1047,0.105,0.1048,0.1073,0.1075,0.1094,0.1064,0.1102,0.1103,0.1105,0.1144,0.1149,0.1153,0,0,0,0,0,0.0901,0.0915,0.0926,0.0933,0.0966,0.0987,0.0992,0.1015,0.1026,0.104,0.1056,0.105,0.1083,0.1075,0.1076,0.1096,0.1101,0.1103,0.1104,0.1142,0.1148,0.1153,0,0,0,0,0,0,0.0893,0.0921,0.0933,0.0956,0.0977,0.0994,0.1013,0.1025,0.1048,0.1057,0.106,0.1064,0.109,0.1087,0.1077,0.1112,0.1091,0.1093,0.112,0.1125,0.113,0.1131,0.1065,0,0,0,0,0,0.0897,0.0918,0.0941,0.0962,0.0974,0.0997,0.1012,0.1027,0.1046,0.1058,0.1071,0.1084,0.1094,0.1106,0.1111,0.1132,0.1137,0.1145,0.115,0.1154,0.1156,0.12,0.1209,0.1111,0.1111,0.1111,0,0,0.09,0.0919,0.0931,0.0962,0.0982,0.1,0.1008,0.1037,0.1054,0.1056,0.1089,0.1099,0.1102,0.1126,0.1138,0.113,0.1181,0.1156,0.1159,0.1159,0.1203,0.1213,0.1221,0.1112,0.1112,0.1112,0,0,0.0909,0.0934,0.0952,0.0971,0.1005,0.1016,0.1029,0.1057,0.1076,0.1104,0.111,0.1137,0.1152,0.1164,0.1168,0.1201,0.12,0.1203,0.1232,0.1275,0.1284,0.1292,0.1297,0.1304,0.1209,0.1209,0.1209,0,0.0911,0.0937,0.096,0.0982,0.1,0.1025,0.1044,0.1064,0.1098,0.1116,0.1122,0.1162,0.117,0.1198,0.1214,0.1212,0.1226,0.1212,0.1283,0.129,0.1298,0.1301,0.1309,0.1211,0.1211,0.1211,0.121,0,0.0927,0.0955,0.0968,0.1002,0.1023,0.1046,0.1073,0.1099,0.1124,0.1146,0.1188,0.1203,0.1235,0.1238,0.1238,0.129,0.1278,0.1281,0.1271,0.131,0.131,0.1318,0.1214,0.1213,0.1213,0.1212,0,0,0.0912,0.0968,0.0974,0.0994,0.1037,0.1052,0.1087,0.1122,0.1152,0.1188,0.123,0.1256,0.1284,0.1291,0.13,0.1332,0.1392,0.1335,0.1336,0.1342,0.147,0.1407,0.1409,0.1419,0.1421,0.1422,0.1444,0,0.0919,0.0957,0.0985,0.102,0.104,0.1074,0.1101,0.1139,0.1178,0.1226,0.1257,0.1303,0.1299,0.1331,0.1364,0.1389,0.1418,0.1384,0.1428,0.1429,0.1371,0.1418,0.1429,0.145,0.1452,0.1453,0.1454,0,0.0919,0.0948,0.0984,0.103,0.1043,0.1067,0.112,0.1151,0.1218,0.1254,0.1311,0.1349,0.1408,0.1403,0.1467,0.1451,0.1469,0.1476,0.1477,0.141,0.1381,0.1405,0.1468,0.1467,0.1466,0.1465,0.1464,0,0.0888,0.0942,0.0971,0.0989,0.1045,0.107,0.1101,0.1163,0.1198,0.1289,0.1332,0.1402,0.1446,0.1492,0.1529,0.1514,0.1587,0.1567,0.1516,0.151,0.154,0.1532,0.1617,0.1617,0.1617,0.1617,0.1616,0,0.0873,0.0897,0.0963,0.0977,0.1011,0.1058,0.1104,0.1148,0.1224,0.1271,0.1355,0.1404,0.1478,0.1533,0.1555,0.1562,0.1618,0.1526,0.1523,0.1553,0.1547,0.1544,0.1536,0.1617,0.1617,0.1617,0.1617,0,0.083,0.0876,0.0909,0.0975,0.0997,0.1021,0.1098,0.1128,0.1211,0.128,0.132,0.142,0.1495,0.155,0.1617,0.1581,0.1604,0.1593,0.1612,0.1608,0.1481,0.1474,0.1523,0.1521,0.152,0.1518,0.1517,0,0.081,0.0825,0.0896,0.0916,0.0949,0.0998,0.1027,0.1111,0.1145,0.128,0.1301,0.1416,0.1479,0.1507,0.1573,0.1608,0.1595,0.1578,0.1532,0.1485,0.1478,0.1473,0.1469,0.1515,0.1515,0.1514,0.1514,0,0.0763,0.0797,0.0823,0.0867,0.0902,0.0938,0.099,0.1011,0.1111,0.1201,0.1274,0.134,0.1411,0.1466,0.1508,0.153,0.1575,0.1561,0.1563,0.152,0.1476,0.1469,0.1466,0.1508,0.1509,0.151,0.151,0,0.0722,0.0728,0.0767,0.0798,0.0843,0.0863,0.0903,0.0952,0.1002,0.1149,0.1174,0.1303,0.1397,0.1427,0.1473,0.1491,0.1463,0.1404,0.1414,0.142,0.1382,0.131,0.1297,0,0,0,0,0,0.0673,0.067,0.0695,0.0722,0.0769,0.08,0.0867,0.0911,0.1014,0.1038,0.1106,0.1184,0.1268,0.133,0.133,0.1423,0.1461,0.1416,0.1394,0.1479,0.1485,0.1452,0,0,0,0,0,0,0.0632,0.0651,0.0663,0.0656,0.0669,0.0709,0.0755,0.0829,0.0845,0.0964,0.1015,0.1113,0.1206,0.1261,0.1308,0.1328,0.1291,0.1496,0.1493,0.1476,0.1481,0.1486,0.1454,0,0,0,0,0]},{"header":{"parameterUnit":"m.s-1","parameterCategory":2,"la1":30.2991,"la2":30.254,"lo1":-89.0895,"lo2":-89.0444,"dy":0.0017,"dx":0.0017,"nx":28,"ny":28,"refTime":"2026-02-16T03:00:00:Z","depth":"4","parameterNumber":3,"parameterNumberName":"V-component_of_CURRENTS"},"data":[0,0,0,0,0,0,0,0,0,0,0,0,0,0,0,0,0,0,0,0,0,0,0,0,0,0,0,0,0,0,0,0,0,0,0,0,0,0,0,0,0,0,0,0,0,0,0,0,0,0,0,0,0,0,0,0,0,0,-0.0133,-0.0134,0,-0.0161,-0.0162,-0.0162,-0.0191,-0.0192,-0.0192,-0.0192,-0.0223,-0.0223,-0.0224,0,0,0,0,0,0,0,0,0,0,0,0,0,-0.0112,-0.0112,-0.0133,-0.0134,-0.0134,-0.0161,-0.0162,-0.0162,-0.0191,-0.0192,-0.0192,-0.0193,-0.0223,-0.0223,-0.0224,0,0,0,0,0,0,0,0,0,0,0,0,0,-0.0128,-0.0112,-0.0133,-0.0152,-0.0154,-0.0161,-0.0162,-0.0162,-0.0191,-0.0192,-0.0192,-0.0193,-0.0223,-0.0223,-0.0224,-0.0215,0,0,-0.0226,-0.0226,0,0,0,0,0,0,0,0,-0.0127,-0.0129,-0.0149,-0.0151,-0.0153,-0.0174,-0.0166,-0.018,-0.0191,-0.0177,-0.0192,-0.0193,-0.0206,-0.0208,-0.0212,-0.0216,-0.0217,-0.0226,-0.0226,-0.0226,-0.0227,0,0,0,0,0,0,0,-0.0126,-0.0128,-0.0144,-0.0149,-0.0152,-0.0162,-0.0165,-0.0168,-0.0187,-0.0178,-0.018,-0.0184,-0.0208,-0.0211,-0.0213,-0.0218,-0.0226,-0.0226,-0.0227,-0.0227,-0.0213,-0.0212,0,0,0,0,0,0,-0.0122,-0.0127,-0.0143,-0.0145,-0.0142,-0.0162,-0.0165,-0.0166,-0.0187,-0.0191,-0.0183,-0.0185,-0.021,-0.0212,-0.0214,-0.0196,-0.0226,-0.0227,-0.0227,-0.0213,-0.0212,-0.0212,0,0,0,0,0,0,-0.0122,-0.0123,-0.0142,-0.0137,-0.014,-0.0161,-0.0162,-0.0166,-0.0175,-0.0191,-0.0195,-0.0189,-0.021,-0.0213,-0.0217,-0.0198,-0.0227,-0.0228,-0.0214,-0.0213,-0.0212,-0.0166,0,0,0,0,0,0,-0.0121,-0.0123,-0.0123,-0.0137,-0.014,-0.0144,-0.0162,-0.0166,-0.0176,-0.0179,-0.0197,-0.0201,-0.0211,-0.0216,-0.0217,-0.0199,-0.0228,-0.0215,-0.0214,-0.0212,-0.0168,-0.0163,-0.0159,0,0,0,0,0,-0.012,-0.0114,-0.0123,-0.0125,-0.014,-0.0144,-0.0147,-0.0164,-0.0176,-0.0175,-0.0188,-0.02,-0.0208,-0.0216,-0.0218,-0.0199,-0.0216,-0.0214,-0.0212,-0.017,-0.0164,-0.0159,0,0,0,0,0,0,-0.0104,-0.0117,-0.0127,-0.0126,-0.0135,-0.0149,-0.0151,-0.0163,-0.0173,-0.0177,-0.0194,-0.0198,-0.0193,-0.0203,-0.0211,-0.0191,-0.0212,-0.0211,-0.018,-0.0174,-0.0169,-0.0149,-0.0229,0,0,0,0,0,-0.01,-0.0101,-0.0115,-0.0114,-0.0118,-0.0135,-0.014,-0.0151,-0.0162,-0.0167,-0.0179,-0.0187,-0.0185,-0.0187,-0.0191,-0.0181,-0.0197,-0.017,-0.0165,-0.0161,-0.0146,-0.0144,-0.0138,-0.0206,-0.0206,-0.0206,0,0,-0.0094,-0.0102,-0.0103,-0.0111,-0.0121,-0.0115,-0.014,-0.0145,-0.0137,-0.0168,-0.0163,-0.0174,-0.018,-0.0169,-0.0167,-0.0176,-0.0156,-0.0159,-0.0155,-0.0142,-0.0142,-0.0135,-0.0129,-0.0205,-0.0205,-0.0205,0,0,-0.0079,-0.0089,-0.0084,-0.0088,-0.0099,-0.0105,-0.0106,-0.012,-0.0123,-0.0122,-0.0136,-0.0133,-0.0143,-0.0133,-0.0131,-0.0102,-0.0133,-0.0109,-0.0066,-0.0065,-0.0059,-0.0054,-0.0093,-0.0092,-0.0104,-0.0104,-0.0104,0,-0.0071,-0.0066,-0.0082,-0.0076,-0.0073,-0.0097,-0.0084,-0.0087,-0.01,-0.0093,-0.0116,-0.0106,-0.0119,-0.0083,-0.0076,-0.0089,-0.0111,-0.0088,-0.0058,-0.0054,-0.0049,-0.009,-0.0089,-0.0102,-0.0102,-0.0102,-0.0103,0,-0.0051,-0.0046,-0.0042,-0.004,-0.0037,-0.0032,-0.0035,-0.0032,-0.0043,-0.0046,-0.0027,-0.0039,-0.0035,-0.0034,-0.0048,-0.0014,-0.005,-0.0055,-0.0072,-0.004,-0.0085,-0.0085,-0.0098,-0.0099,-0.01,-0.0101,0,0,-0.0034,-0.0028,-0.0028,-0.0016,-0.0017,-0.001,0.001,0.0025,0.0044,0.0033,0.0059,0.0065,0.0048,0.0051,0.0038,0.0047,0.0042,0.001,0.0009,-0.0028,0.0012,-0.0047,-0.0054,0.0039,0.004,0.0041,-0.0043,0,-0.0013,0.001,0.0008,0.0037,0.0051,0.0048,0.0072,0.0084,0.0084,0.01,0.0101,0.0109,0.0083,0.0081,0.0089,0.0055,0.0049,0.0064,-0.0014,-0.0016,-0.0071,-0.0052,0.0044,-0.0043,-0.0043,-0.0043,-0.0043,0,0.0007,0.0021,0.0051,0.0082,0.0089,0.0105,0.0142,0.0158,0.0178,0.0177,0.0188,0.017,0.0178,0.0149,0.0117,0.0123,0.0073,0.0048,0.0044,-0.0021,-0.0074,-0.0075,-0.0043,-0.0043,-0.0043,-0.0043,-0.0043,0,0.0027,0.0054,0.0082,0.009,0.0119,0.014,0.0157,0.0182,0.0206,0.0219,0.0226,0.0227,0.0213,0.0181,0.0095,0.0107,0.0045,0.005,-0.0049,-0.0056,0.0002,-0.0003,0.0035,0.0035,0.0035,0.0035,0.0036,0,0.0051,0.0073,0.0093,0.0108,0.0153,0.0162,0.021,0.0225,0.0254,0.0283,0.026,0.0268,0.0222,0.0168,0.0106,0.0008,0.004,-0.0037,-0.0069,0.0017,0.0016,-0.0001,-0.0004,0.0032,0.0033,0.0034,0.0034,0,0.0065,0.0076,0.0111,0.0145,0.0161,0.019,0.0239,0.0273,0.0287,0.0322,0.0322,0.0293,0.0212,0.0137,0.0059,0.0006,-0.007,-0.0117,-0.0055,-0.0084,-0.0173,-0.0173,-0.0209,-0.0212,-0.0214,-0.0216,-0.0217,0,0.0073,0.009,0.0133,0.0158,0.0174,0.0218,0.0255,0.0287,0.0319,0.0332,0.0347,0.0276,0.0237,0.0081,-0.0005,-0.0145,-0.0159,-0.0206,-0.014,-0.0165,-0.0192,-0.0188,-0.0185,-0.0221,-0.0221,-0.0222,-0.0222,0,0.0086,0.0098,0.0125,0.0174,0.0213,0.0266,0.0311,0.034,0.0372,0.0385,0.0365,0.0286,0.0182,0.0068,-0.0068,-0.0156,-0.0167,-0.0227,-0.0222,-0.016,-0.0179,-0.0203,-0.0198,-0.023,-0.0229,-0.0228,-0.0228,0,0.0088,0.0108,0.0138,0.0185,0.0237,0.029,0.0322,0.0354,0.0384,0.04,0.0382,0.0281,0.0228,0.0057,-0.0058,-0.0168,-0.0168,-0.0168,-0.0166,-0.0159,-0.0118,-0.0133,-0.019,0,0,0,0,0,0.0082,0.0102,0.0148,0.0198,0.0253,0.0282,0.0349,0.0378,0.0407,0.0401,0.0398,0.03,0.0133,0.006,-0.0057,-0.0102,-0.0199,-0.0242,-0.0201,-0.0271,-0.0263,-0.0228,0,0,0,0,0,0,0.0072,0.0106,0.0137,0.0196,0.0234,0.0295,0.0339,0.0367,0.0367,0.038,0.0292,0.0265,0.0097,0.0189,-0.0065,-0.01,-0.0087,-0.0319,-0.0321,-0.0276,-0.0268,-0.0261,-0.0223,0,0,0,0,0]}]]